When you browse on this site, cookies collect data to enhance your experience and personalize the content and advertising you see.
Visit our Privacy Policy to learn more. By continuing to use the site, you agree to this use of cookies and data.
  • In Hungary
  • List of Countries
  • For 7 days
  • Water Temperature
  • Weather Map
  • News
  • Weather Widgets
  • user-avatar
    Login

    Hourly Weather Solden

    Today, 5 June, Friday

    Time Temperature Precipitation Wind Pressure Humidity
    00:00 +2°C° 3.3 mm 1 mps 570 mmHg 98%
    01:00 +1°C° 3.3 mm 2 mps 570 mmHg 98%
    02:00 -1°C° 1.2 mm 2 mps 570 mmHg 97%
    03:00 -1°C° 1.2 mm 2 mps 570 mmHg 97%
    04:00 -1°C° 1.2 mm 2 mps 570 mmHg 96%
    05:00 +2°C° 0.2 mm 1 mps 570 mmHg 95%
    06:00 +2°C° 0.2 mm 1 mps 571 mmHg 94%
    07:00 +3°C° 0.2 mm 1 mps 571 mmHg 93%
    08:00 +4°C° 0 mm 1 mps 572 mmHg 86%
    09:00 +5°C° 0 mm 1 mps 573 mmHg 79%
    10:00 +7°C° 0 mm 1 mps 574 mmHg 72%
    11:00 +7°C° 0.2 mm 1 mps 574 mmHg 73%
    12:00 +7°C° 0.2 mm 1 mps 574 mmHg 74%
    13:00 +8°C° 0.2 mm 1 mps 574 mmHg 74%
    14:00 +8°C° 0.2 mm 1 mps 575 mmHg 73%
    15:00 +8°C° 0.2 mm 1 mps 575 mmHg 73%
    16:00 +9°C° 0.2 mm 1 mps 575 mmHg 72%
    17:00 +8°C° 0.2 mm 1 mps 575 mmHg 77%
    18:00 +7°C° 0.2 mm 1 mps 575 mmHg 83%
    19:00 +7°C° 0.2 mm 1 mps 575 mmHg 89%
    20:00 +5°C° 0.1 mm 1 mps 575 mmHg 91%
    21:00 +4°C° 0.1 mm 1 mps 575 mmHg 93%
    22:00 +2°C° 0.1 mm 1 mps 575 mmHg 94%
    23:00 +3°C° 0 mm 1 mps 575 mmHg 95%

    Tomorrow, 6 June, Saturday

    Time Temperature Precipitation Wind Pressure Humidity
    00:00 +2°C° 0 mm 0 mps 575 mmHg 96%
    01:00 +2°C° 0 mm 0 mps 576 mmHg 96%
    02:00 +3°C° 0 mm 1 mps 576 mmHg 96%
    03:00 +3°C° 0 mm 1 mps 576 mmHg 96%
    04:00 +3°C° 0 mm 1 mps 576 mmHg 96%
    05:00 +4°C° 0 mm 1 mps 576 mmHg 95%
    06:00 +4°C° 0 mm 1 mps 576 mmHg 94%
    07:00 +5°C° 0 mm 1 mps 577 mmHg 93%
    08:00 +5°C° 0.1 mm 1 mps 577 mmHg 92%
    09:00 +6°C° 0.1 mm 1 mps 577 mmHg 91%
    10:00 +7°C° 0.1 mm 1 mps 578 mmHg 90%
    11:00 +7°C° 0.3 mm 2 mps 578 mmHg 86%
    12:00 +8°C° 0.3 mm 2 mps 579 mmHg 81%
    13:00 +9°C° 0.3 mm 2 mps 579 mmHg 76%
    14:00 +9°C° 0.5 mm 2 mps 579 mmHg 80%
    15:00 +9°C° 0.5 mm 2 mps 579 mmHg 83%
    16:00 +8°C° 0.5 mm 2 mps 579 mmHg 86%
    17:00 +8°C° 0.6 mm 2 mps 578 mmHg 89%
    18:00 +8°C° 0.6 mm 1 mps 578 mmHg 92%
    19:00 +7°C° 0.6 mm 1 mps 578 mmHg 96%
    20:00 +6°C° 0.3 mm 1 mps 578 mmHg 96%
    21:00 +5°C° 0.3 mm 1 mps 578 mmHg 96%
    22:00 +4°C° 0.3 mm 1 mps 577 mmHg 96%
    23:00 +4°C° 0.1 mm 1 mps 577 mmHg 96%

    Day after tomorrow, 7 June, Sunday

    Time Temperature Precipitation Wind Pressure Humidity
    00:00 +4°C° 0.1 mm 1 mps 577 mmHg 96%
    01:00 +4°C° 0.1 mm 1 mps 577 mmHg 96%
    02:00 +4°C° 0.2 mm 1 mps 577 mmHg 97%
    03:00 +4°C° 0.2 mm 1 mps 577 mmHg 97%
    04:00 +3°C° 0.2 mm 0 mps 577 mmHg 97%
    05:00 +5°C° 0.4 mm 1 mps 577 mmHg 97%
    06:00 +5°C° 0.4 mm 1 mps 577 mmHg 97%
    07:00 +5°C° 0.4 mm 1 mps 578 mmHg 97%
    08:00 +6°C° 0.4 mm 1 mps 578 mmHg 96%
    09:00 +7°C° 0.4 mm 1 mps 579 mmHg 95%
    10:00 +7°C° 0.4 mm 1 mps 579 mmHg 94%
    11:00 +7°C° 1 mm 1 mps 579 mmHg 95%
    12:00 +7°C° 1 mm 1 mps 579 mmHg 95%
    13:00 +7°C° 1 mm 1 mps 579 mmHg 96%
    14:00 +7°C° 3.8 mm 1 mps 579 mmHg 96%
    15:00 +6°C° 3.8 mm 1 mps 579 mmHg 97%
    16:00 +5°C° 3.8 mm 1 mps 578 mmHg 97%
    17:00 +4°C° 1.5 mm 1 mps 578 mmHg 97%
    18:00 +3°C° 1.5 mm 2 mps 578 mmHg 97%
    19:00 +2°C° 1.5 mm 2 mps 578 mmHg 97%
    20:00 +2°C° 1.6 mm 2 mps 578 mmHg 97%
    21:00 +2°C° 1.6 mm 2 mps 578 mmHg 97%
    22:00 +2°C° 1.6 mm 1 mps 578 mmHg 97%
    23:00 +2°C° 2.7 mm 1 mps 578 mmHg 97%

    8 June, Monday

    Time Temperature Precipitation Wind Pressure Humidity
    00:00 +2°C° 2.7 mm 1 mps 577 mmHg 97%
    01:00 +2°C° 2.7 mm 1 mps 577 mmHg 98%
    02:00 +2°C° 2.1 mm 1 mps 577 mmHg 97%
    03:00 +2°C° 2.1 mm 1 mps 577 mmHg 97%
    04:00 +2°C° 2.1 mm 1 mps 577 mmHg 97%
    05:00 +2°C° 0.9 mm 1 mps 577 mmHg 97%
    06:00 +2°C° 0.9 mm 1 mps 577 mmHg 97%
    07:00 +3°C° 0.9 mm 1 mps 577 mmHg 97%
    08:00 +3°C° 0.3 mm 1 mps 578 mmHg 95%
    09:00 +4°C° 0.3 mm 1 mps 578 mmHg 92%
    10:00 +4°C° 0.3 mm 0 mps 579 mmHg 90%
    11:00 +5°C° 0.3 mm 1 mps 579 mmHg 89%
    12:00 +6°C° 0.3 mm 1 mps 579 mmHg 88%
    13:00 +6°C° 0.3 mm 1 mps 579 mmHg 86%
    14:00 +6°C° 0.6 mm 1 mps 579 mmHg 90%
    15:00 +5°C° 0.6 mm 1 mps 579 mmHg 93%
    16:00 +5°C° 0.6 mm 1 mps 578 mmHg 96%
    17:00 +4°C° 0.8 mm 1 mps 578 mmHg 96%
    18:00 +4°C° 0.8 mm 1 mps 578 mmHg 96%
    19:00 +4°C° 0.8 mm 1 mps 578 mmHg 96%
    20:00 +3°C° 0.6 mm 1 mps 578 mmHg 96%
    21:00 +3°C° 0.6 mm 1 mps 578 mmHg 96%
    22:00 +3°C° 0.6 mm 1 mps 578 mmHg 95%
    23:00 +2°C° 0.2 mm 1 mps 578 mmHg 95%

    9 June, Tuesday

    Time Temperature Precipitation Wind Pressure Humidity
    00:00 +2°C° 0.2 mm 1 mps 578 mmHg 95%
    01:00 +2°C° 0.2 mm 1 mps 578 mmHg 95%
    02:00 +2°C° 0.2 mm 1 mps 578 mmHg 94%
    03:00 +2°C° 0.2 mm 1 mps 578 mmHg 94%
    04:00 +1°C° 0.2 mm 2 mps 578 mmHg 94%
    05:00 +1°C° 0.5 mm 2 mps 578 mmHg 94%
    06:00 +1°C° 0.5 mm 2 mps 579 mmHg 94%
    07:00 +2°C° 0.5 mm 2 mps 579 mmHg 94%
    08:00 +4°C° 0.4 mm 1 mps 579 mmHg 91%
    09:00 +5°C° 0.4 mm 1 mps 580 mmHg 88%
    10:00 +6°C° 0.4 mm 1 mps 581 mmHg 84%
    11:00 +7°C° 0.3 mm 1 mps 581 mmHg 81%
    12:00 +8°C° 0.3 mm 1 mps 582 mmHg 78%
    13:00 +9°C° 0.3 mm 1 mps 582 mmHg 74%
    14:00 +9°C° 0.7 mm 1 mps 582 mmHg 76%
    15:00 +9°C° 0.7 mm 1 mps 582 mmHg 77%
    16:00 +8°C° 0.7 mm 1 mps 582 mmHg 79%
    17:00 +8°C° 0.7 mm 1 mps 581 mmHg 82%
    18:00 +7°C° 0.7 mm 1 mps 581 mmHg 85%
    19:00 +5°C° 0.7 mm 0 mps 581 mmHg 89%
    20:00 +5°C° 0.6 mm 1 mps 581 mmHg 89%
    21:00 +4°C° 0.6 mm 1 mps 581 mmHg 90%
    22:00 +4°C° 0.6 mm 1 mps 581 mmHg 91%
    23:00 +3°C° 0.8 mm 1 mps 581 mmHg 92%

    10 June, Wednesday

    Time Temperature Precipitation Wind Pressure Humidity
    00:00 +3°C° 0.8 mm 1 mps 581 mmHg 93%
    01:00 +3°C° 0.8 mm 1 mps 581 mmHg 94%
    02:00 +3°C° 0.1 mm 1 mps 581 mmHg 93%
    03:00 +3°C° 0.1 mm 1 mps 581 mmHg 93%
    04:00 +2°C° 0.1 mm 1 mps 580 mmHg 92%
    05:00 +3°C° 0 mm 1 mps 581 mmHg 90%
    06:00 +3°C° 0 mm 0 mps 582 mmHg 88%
    07:00 +4°C° 0 mm 0 mps 582 mmHg 86%
    08:00 +5°C° 0.1 mm 0 mps 583 mmHg 81%
    09:00 +8°C° 0.1 mm 1 mps 584 mmHg 76%
    10:00 +9°C° 0.1 mm 1 mps 584 mmHg 71%
    11:00 +9°C° 0.6 mm 1 mps 584 mmHg 74%
    12:00 +9°C° 0.6 mm 1 mps 584 mmHg 78%
    13:00 +9°C° 0.6 mm 1 mps 584 mmHg 81%
    14:00 +9°C° 0.7 mm 1 mps 584 mmHg 81%
    15:00 +9°C° 0.7 mm 1 mps 584 mmHg 81%
    16:00 +9°C° 0.7 mm 1 mps 584 mmHg 81%
    17:00 +9°C° 0.7 mm 1 mps 584 mmHg 85%
    18:00 +8°C° 0.7 mm 1 mps 584 mmHg 88%
    19:00 +6°C° 0.7 mm 0 mps 583 mmHg 92%
    20:00 +5°C° 0.2 mm 0 mps 583 mmHg 92%
    21:00 +5°C° 0.2 mm 0 mps 583 mmHg 92%
    22:00 +4°C° 0.2 mm 0 mps 583 mmHg 92%
    23:00 +3°C° 0 mm 0 mps 583 mmHg 93%
    Show more